TimeEST,TemperatureF,Dew PointF,Humidity,Sea Level PressureIn,VisibilityMPH,Wind Direction,Wind SpeedMPH,Gust SpeedMPH,PrecipitationIn,Events,Conditions,WindDirDegrees,DateUTC
12:53 AM,39.9,30.0,68,29.96,9.0,WSW,6.9,-,N/A,,Clear,250,2014-03-08 05:53:00
1:53 AM,39.9,30.9,70,29.97,8.0,WSW,5.8,-,N/A,,Clear,240,2014-03-08 06:53:00
2:53 AM,39.0,32.0,76,29.96,6.0,SW,6.9,-,N/A,,Haze,230,2014-03-08 07:53:00
3:53 AM,39.9,33.1,77,29.94,6.0,SW,6.9,-,N/A,,Haze,230,2014-03-08 08:53:00
4:53 AM,39.9,33.1,77,29.95,6.0,WSW,6.9,-,N/A,,Haze,240,2014-03-08 09:53:00
5:53 AM,39.0,33.1,79,29.98,5.0,WSW,6.9,-,N/A,,Haze,240,2014-03-08 10:53:00
6:53 AM,37.0,32.0,82,30.00,4.0,West,3.5,-,N/A,,Haze,260,2014-03-08 11:53:00
7:16 AM,34.0,30.9,89,30.01,2.5,West,5.8,-,N/A,,Clear,270,2014-03-08 12:16:00
7:53 AM,35.1,32.0,89,30.04,2.0,WNW,5.8,-,N/A,,Clear,290,2014-03-08 12:53:00
8:53 AM,39.0,33.1,79,30.04,2.5,North,9.2,-,N/A,,Haze,350,2014-03-08 13:53:00
9:00 AM,39.0,33.1,79,30.04,3.0,North,8.1,-,N/A,,Haze,360,2014-03-08 14:00:00
9:09 AM,39.0,33.1,79,30.04,2.5,North,6.9,-,N/A,,Haze,10,2014-03-08 14:09:00
9:53 AM,39.0,32.0,76,30.05,2.5,NNE,6.9,-,N/A,,Haze,30,2014-03-08 14:53:00
10:30 AM,39.9,32.0,73,30.04,3.0,NE,6.9,-,N/A,,Haze,50,2014-03-08 15:30:00
10:42 AM,39.9,32.0,73,30.04,2.5,ENE,5.8,-,N/A,,Haze,60,2014-03-08 15:42:00
10:49 AM,41.0,33.8,76,30.04,3.0,East,4.6,-,N/A,,Haze,90,2014-03-08 15:49:00
10:53 AM,41.0,33.1,73,30.05,3.0,East,3.5,-,N/A,,Haze,100,2014-03-08 15:53:00
11:53 AM,44.1,34.0,68,30.04,3.0,Variable,6.9,-,N/A,,Haze,0,2014-03-08 16:53:00
12:53 PM,43.0,33.1,68,30.07,3.0,North,5.8,-,N/A,,Haze,360,2014-03-08 17:53:00
1:08 PM,43.0,35.1,74,30.05,3.0,North,10.4,-,N/A,,Haze,350,2014-03-08 18:08:00
1:16 PM,42.1,35.1,76,30.05,2.5,North,9.2,-,N/A,,Haze,10,2014-03-08 18:16:00
1:53 PM,39.9,34.0,79,30.06,2.0,North,9.2,-,N/A,,Haze,360,2014-03-08 18:53:00
2:02 PM,39.9,34.0,79,30.05,1.8,North,10.4,-,N/A,,Haze,350,2014-03-08 19:02:00
2:53 PM,37.9,33.1,83,30.07,1.8,NNW,12.7,-,N/A,,Haze,340,2014-03-08 19:53:00
3:53 PM,36.0,32.0,86,30.08,1.5,North,8.1,-,N/A,,Overcast,350,2014-03-08 20:53:00
4:02 PM,36.0,32.0,86,30.07,1.5,North,9.2,-,N/A,,Overcast,350,2014-03-08 21:02:00
4:53 PM,35.1,32.0,89,30.10,1.5,NW,12.7,-,N/A,,Overcast,320,2014-03-08 21:53:00
5:45 PM,33.1,30.0,89,30.10,2.0,NNW,10.4,-,N/A,,Overcast,330,2014-03-08 22:45:00
5:53 PM,33.1,30.0,89,30.12,2.5,NNW,10.4,-,N/A,,Overcast,330,2014-03-08 22:53:00
6:22 PM,33.1,30.0,89,30.12,2.0,NW,9.2,-,N/A,,Overcast,320,2014-03-08 23:22:00
6:41 PM,32.0,30.0,92,30.12,2.5,NW,9.2,-,N/A,,Overcast,320,2014-03-08 23:41:00
6:47 PM,32.0,30.2,93,30.13,3.0,NNW,12.7,-,N/A,,Overcast,330,2014-03-08 23:47:00
6:48 PM,32.0,30.0,92,30.14,3.0,NNW,12.7,-,N/A,,Overcast,330,2014-03-08 23:48:00
7:15 PM,32.0,28.9,88,30.13,3.0,NNW,11.5,-,N/A,,Overcast,340,2014-03-09 00:15:00
7:53 PM,32.0,28.9,88,30.15,4.0,NNW,9.2,-,N/A,,Overcast,330,2014-03-09 00:53:00
8:53 PM,30.9,28.0,89,30.16,5.0,NNW,12.7,-,N/A,,Overcast,330,2014-03-09 01:53:00
9:51 PM,30.2,26.6,86,30.17,6.0,NNW,15.0,-,N/A,,Overcast,330,2014-03-09 02:51:00
9:53 PM,30.0,26.1,85,30.19,6.0,NW,15.0,-,N/A,,Overcast,320,2014-03-09 02:53:00
10:53 PM,28.9,24.1,82,30.21,8.0,NNW,17.3,-,N/A,,Overcast,330,2014-03-09 03:53:00
11:02 PM,28.9,24.1,82,30.19,8.0,NNW,15.0,-,N/A,,Overcast,330,2014-03-09 04:02:00
11:49 PM,28.4,24.8,86,30.20,8.0,NNW,13.8,-,N/A,,Overcast,330,2014-03-09 04:49:00
11:53 PM,28.0,23.0,81,30.21,8.0,NNW,16.1,-,N/A,,Overcast,330,2014-03-09 04:53:00